Regional Weather Roundup
Issued by NWS State College, PA

Home | Current Version | Previous Version | Text Only | Print | Product List | Glossary On
Versions: 1 2 3 4 5 6 7 8 9 10 11 12 13 14 15 16 17 18 19 20 21 22 23 24 25 26 27 28 29 30 31 32 33 34 35 36 37 38 39 40 41 42 43 44 45 46 47 48 49 50
000
ASUS41 KCTP 290410
RWRCTP

REGIONAL WEATHER ROUNDUP
NATIONAL WEATHER SERVICE STATE COLLEGE PA
1200 AM EDT MON MAY 29 2017

Note: "fair" indicates few or no clouds below 12,000 feet with no
significant weather and/or obstructions to visibility.

* = STATION THAT DOES NOT REPORT PRECIPITATION /E.G. RAIN...SNOW...ETC/
    THUNDER OR FOG.

PAZ002>004-007>009-013>016-020>023-029>032-290500-
WESTERN PENNSYLVANIA

CITY           SKY/WX    TMP DP  RH WIND       PRES   REMARKS
ERIE           CLOUDY    63  60  90 S12       29.73S
MEADVILLE      RAIN      60  60 100 VRB5      29.77S FOG
FRANKLIN*      CLOUDY    61  55  82 SE8       29.78F
NEW CASTLE     HVY RAIN  63  61  94 E6        29.79R FOG
BEAVER COUNTY  NOT AVBL
BUTLER*        CLOUDY    63  61  94 N3        29.79F THUNDER
PITTSBURGH INT TSTM      68  65  90 SW7       29.77S
PITTSBURGH     PTCLDY    68  60  75 SW10      29.77S
INDIANA*       CLOUDY    63  61  94 VRB3G16   29.82R
LATROBE        CLOUDY    68  64  88 S10       29.79S
WASHINGTON CO* CLOUDY    66  61  82 SW6       29.81F
$$

PAZ004>006-010>012-017>019-024>028-033>037-041-042-045-046-049>053-290500-
CENTRAL PENNSYLVANIA

CITY           SKY/WX    TMP DP  RH WIND       PRES   REMARKS
BRADFORD       RAIN      59  59 100 S8        29.81F FOG
DUBOIS         LGT RAIN  60  58  92 SE5       29.81F
CLEARFIELD     HVY RAIN  61  61 100 N6        29.83R FOG
JOHNSTOWN      LGT RAIN  61  60  97 S9        29.82F
ALTOONA        CLOUDY    62  61  96 SE8       29.83F
STATE COLLEGE  LGT RAIN  61  61  99 CALM      29.84F VSB 3/4
WILLIAMSPORT   LGT RAIN  65  62  90 VRB3      29.81F
SELINSGROVE    CLOUDY    63  63 100 CALM      29.84F
FT INDIANTOWN  LGT RAIN  59  59 100 E8        29.86F
CAPITAL CITY   RAIN      62  60  93 E10       29.84F FOG
HARRISBURG     LGT RAIN  62  62 100 E10       29.84F FOG
YORK           CLOUDY    62  62 100 E8        29.84F FOG
$$

PAZ038>040-043-044-047-048-054-055-060>062-067>071-290500-
EASTERN PENNSYLVANIA

CITY           SKY/WX    TMP DP  RH WIND       PRES   REMARKS
SCRANTON       LGT RAIN  61  55  81 CALM      29.86F
MOUNT POCONO   LGT RAIN  52  52 100 SE8       29.90F
ALLENTOWN      CLOUDY    60  54  80 E8        29.89S
QUAKERTOWN*    CLOUDY    57  57 100 E5        29.90S
READING        RAIN      60  59  96 VRB3      29.87S
LANCASTER      CLOUDY    61  60  97 E8        29.86F
COATESVILLE    CLOUDY    59  59 100 E7G15     29.88S
POTTSTOWN      LGT RAIN  57  56  96 E5        29.89F
BLUE BELL      CLOUDY    55  55 100 E6        29.89F
DOYLESTOWN     LGT RAIN  57  56  96 CALM      29.88F
WILLOW GROVE   NOT AVBL
NORTH PHILA    LGT RAIN  60  57  89 E8        29.89F
PHILADELPHIA   LGT RAIN  60  57  89 NE8       29.87F
$$



USA.gov is the U.S. government's official web portal to all federal, state and local government web resources and services.